Date String (YYYY-MM-DD hh:mm:ss) UTC,Instrument flags,Ambient pressure (hPa),Sample flow (lpm),Bypass flow (lpm),Sample temperature (°C),Ambient temperature (°C),ASC tube jacket temperature (°C),LED temperature (°C),Box temperature (°C),Sample RH (%),Mass concentration (μg/m³),Mass concentration (μg/m³)
DateTimeUTC,F1_M11,P_M11,Q1_M11,Q2_M11,T1_M11,T2_M11,T3_M11,T4_M11,T5_M11,U1_M11,X0_M11,X2_M11
2021-08-11 10:00:00,FlowAlarm;OPCInstrumentWarning,0828.3,4.99,0.00,29.8,29.0,00.0,38.9,31.7,13.3,0052.71,0036.11
2021-08-11 10:01:00,FlowAlarm;OPCInstrumentWarning,0828.3,5.00,0.00,29.8,29.0,00.0,38.9,31.8,13.2,0050.72,0035.83
2021-08-11 10:02:00,FlowAlarm;OPCInstrumentWarning,0828.3,5.01,0.00,29.8,29.1,00.0,38.9,31.8,13.1,0049.17,0035.50
2021-08-11 10:03:00,FlowAlarm;OPCInstrumentWarning,0828.3,5.00,0.00,29.9,29.1,00.0,38.9,31.9,13.1,0047.62,0035.18
2021-08-11 10:04:00,FlowAlarm;OPCInstrumentWarning,0828.4,4.99,0.00,29.9,29.2,00.0,39.0,31.9,13.3,0046.65,0034.83
2021-08-11 10:05:00,FlowAlarm;OPCInstrumentWarning,0828.4,5.00,0.00,29.9,28.8,00.0,39.0,31.8,13.2,0045.95,0034.49
2021-08-11 10:06:00,FlowAlarm;OPCInstrumentWarning,0828.4,4.98,0.00,29.8,26.9,00.0,39.0,31.3,13.1,0045.34,0034.29
2021-08-11 10:07:00,FlowAlarm;OPCInstrumentWarning,0828.3,5.02,0.00,29.6,25.6,00.0,38.9,30.9,12.9,0045.02,0034.09
2021-08-11 10:08:00,FlowAlarm;OPCInstrumentWarning,0828.3,4.99,0.00,29.5,25.8,00.0,38.8,30.9,13.2,0045.59,0033.82
2021-08-11 10:09:00,FlowAlarm;OPCInstrumentWarning,0828.3,5.00,0.00,29.3,26.2,00.0,38.8,30.9,13.4,0045.40,0033.43
2021-08-11 10:10:00,FlowAlarm;OPCInstrumentWarning,0828.3,5.01,0.00,29.3,26.6,00.0,38.7,31.0,13.4,0044.47,0033.15
2021-08-11 10:11:00,FlowAlarm;OPCInstrumentWarning,0828.3,4.99,0.00,29.3,27.1,00.0,38.7,31.1,13.4,0044.07,0033.00
2021-08-11 10:12:00,FlowAlarm;OPCInstrumentWarning,0828.4,5.00,0.00,29.3,27.4,00.0,38.7,31.1,13.3,0043.91,0032.91
2021-08-11 10:13:00,FlowAlarm;OPCInstrumentWarning,0828.5,5.00,0.00,29.3,27.7,00.0,38.6,31.2,13.5,0043.61,0032.74
2021-08-11 10:14:00,FlowAlarm;OPCInstrumentWarning,0828.4,5.01,0.00,29.3,27.9,00.0,38.6,31.2,13.4,0043.30,0032.62
2021-08-11 10:15:00,FlowAlarm;OPCInstrumentWarning,0828.5,5.01,0.00,29.3,28.0,00.0,38.6,31.3,13.3,0043.34,0032.51
2021-08-11 10:16:00,FlowAlarm;OPCInstrumentWarning,0828.5,5.00,0.00,29.4,28.2,00.0,38.6,31.3,13.3,0043.58,0032.34
2021-08-11 10:17:00,FlowAlarm;OPCInstrumentWarning,0828.5,4.99,0.00,29.4,28.3,00.0,38.6,31.4,13.4,0043.46,0032.21
2021-08-11 10:18:00,FlowAlarm;OPCInstrumentWarning,0828.5,5.00,0.00,29.4,28.4,00.0,38.6,31.4,13.4,0043.14,0032.06
2021-08-11 10:19:00,FlowAlarm;OPCInstrumentWarning,0828.5,5.01,0.00,29.5,28.5,00.0,38.7,31.4,13.5,0041.99,0031.97
2021-08-11 10:20:00,FlowAlarm;OPCInstrumentWarning,0828.5,4.99,0.00,29.5,28.5,00.0,38.7,31.5,13.8,0041.56,0031.98
2021-08-11 10:21:00,FlowAlarm;OPCInstrumentWarning,0828.6,5.00,0.00,29.5,28.6,00.0,38.7,31.5,13.8,0041.35,0031.89
2021-08-11 10:22:00,FlowAlarm;OPCInstrumentWarning,0828.7,5.01,0.00,29.6,28.6,00.0,38.7,31.5,13.3,0041.22,0031.82
2021-08-11 10:23:00,FlowAlarm;OPCInstrumentWarning,0828.9,4.98,0.00,29.6,28.7,00.0,38.7,31.6,13.4,0041.15,0031.75
2021-08-11 10:24:00,FlowAlarm;OPCInstrumentWarning,0829.1,5.02,0.00,29.6,28.8,00.0,38.7,31.6,13.6,0041.66,0031.82
2021-08-11 10:25:00,FlowAlarm;OPCInstrumentWarning,0828.9,5.00,0.00,29.7,28.8,00.0,38.8,31.7,13.5,0042.19,0031.77
2021-08-11 10:26:00,FlowAlarm;OPCInstrumentWarning,0828.6,4.98,0.00,29.7,28.8,00.0,38.8,31.7,13.3,0041.93,0031.76
2021-08-11 10:27:00,FlowAlarm;OPCInstrumentWarning,0828.9,5.01,0.00,29.7,28.9,00.0,38.8,31.7,14.2,0041.95,0031.75
2021-08-11 10:28:00,FlowAlarm;OPCInstrumentWarning,0829.0,4.99,0.00,29.8,28.9,00.0,38.8,31.7,14.6,0042.79,0031.85
2021-08-11 10:29:00,FlowAlarm;OPCInstrumentWarning,0829.2,5.01,0.00,29.8,29.0,00.0,38.9,31.8,14.1,0043.14,0031.98
2021-08-11 10:30:00,FlowAlarm;OPCInstrumentWarning,0829.1,5.01,0.00,29.8,29.0,00.0,38.9,31.8,14.5,0043.87,0032.06
2021-08-11 10:31:00,FlowAlarm;OPCInstrumentWarning,0828.9,4.99,0.00,29.9,29.0,00.0,38.9,31.8,14.9,0043.76,0032.09
2021-08-11 10:32:00,FlowAlarm;OPCInstrumentWarning,0828.7,5.01,0.00,29.9,29.1,00.0,38.9,31.8,14.7,0044.02,0032.20
2021-08-11 10:33:00,FlowAlarm;OPCInstrumentWarning,0828.7,4.98,0.00,29.9,29.1,00.0,39.0,31.9,14.6,0044.29,0032.38
2021-08-11 10:34:00,FlowAlarm;OPCInstrumentWarning,0828.7,5.01,0.00,30.0,29.0,00.0,39.0,31.9,14.2,0044.45,0032.48
2021-08-11 10:35:00,FlowAlarm;OPCInstrumentWarning,0828.7,5.01,0.00,29.9,27.4,00.0,39.0,31.4,14.1,0044.35,0032.41
2021-08-11 10:36:00,FlowAlarm;OPCInstrumentWarning,0828.9,5.00,0.00,29.7,25.6,00.0,38.9,30.9,14.4,0043.99,0032.50
2021-08-11 10:37:00,FlowAlarm;OPCInstrumentWarning,0829.0,4.99,0.00,29.5,25.5,00.0,38.9,30.8,14.5,0044.32,0032.59
2021-08-11 10:38:00,FlowAlarm;OPCInstrumentWarning,0829.1,5.00,0.00,29.4,25.9,00.0,38.8,30.9,14.5,0045.15,0032.62
2021-08-11 10:39:00,FlowAlarm;OPCInstrumentWarning,0828.8,5.01,0.00,29.3,26.4,00.0,38.7,31.0,14.6,0044.51,0032.52
2021-08-11 10:40:00,FlowAlarm;OPCInstrumentWarning,0828.8,4.99,0.00,29.3,26.8,00.0,38.7,31.0,14.5,0044.65,0032.46
2021-08-11 10:41:00,FlowAlarm;OPCInstrumentWarning,0828.7,5.00,0.00,29.2,27.2,00.0,38.7,31.1,14.5,0044.18,0032.45
2021-08-11 10:42:00,FlowAlarm;OPCInstrumentWarning,0828.7,5.00,0.00,29.3,27.5,00.0,38.6,31.1,14.9,0044.26,0032.43
2021-08-11 10:43:00,FlowAlarm;OPCInstrumentWarning,0828.7,5.00,0.00,29.3,27.7,00.0,38.6,31.2,14.9,0044.24,0032.39
2021-08-11 10:44:00,FlowAlarm;OPCInstrumentWarning,0828.7,5.01,0.00,29.3,27.9,00.0,38.6,31.2,14.8,0044.83,0032.36
2021-08-11 10:45:00,FlowAlarm;OPCInstrumentWarning,0828.7,5.01,0.00,29.3,28.0,00.0,38.6,31.3,14.8,0044.99,0032.40
2021-08-11 10:46:00,FlowAlarm;OPCInstrumentWarning,0828.7,4.99,0.00,29.3,28.2,00.0,38.6,31.3,14.8,0044.90,0032.53
2021-08-11 10:47:00,FlowAlarm;OPCInstrumentWarning,0828.7,5.01,0.00,29.4,28.3,00.0,38.6,31.4,14.9,0044.99,0032.58
2021-08-11 10:48:00,FlowAlarm;OPCInstrumentWarning,0828.7,5.00,0.00,29.4,28.3,00.0,38.6,31.4,14.9,0044.89,0032.67
2021-08-11 10:49:00,FlowAlarm;OPCInstrumentWarning,0828.7,4.99,0.00,29.4,28.4,00.0,38.6,31.4,14.8,0043.95,0032.87
2021-08-11 10:50:00,FlowAlarm;OPCInstrumentWarning,0828.7,5.01,0.00,29.4,28.5,00.0,38.6,31.4,14.6,0044.50,0033.01
2021-08-11 10:51:00,FlowAlarm;OPCInstrumentWarning,0828.8,5.00,0.00,29.5,28.5,00.0,38.6,31.4,14.5,0044.88,0033.16
2021-08-11 10:52:00,FlowAlarm;OPCInstrumentWarning,0828.9,4.99,0.00,29.5,28.6,00.0,38.7,31.5,14.7,0045.32,0033.29
2021-08-11 10:53:00,FlowAlarm;OPCInstrumentWarning,0829.0,5.01,0.00,29.5,28.7,00.0,38.7,31.5,14.7,0045.52,0033.42
2021-08-11 10:54:00,FlowAlarm;OPCInstrumentWarning,0829.2,5.01,0.00,29.5,28.7,00.0,38.7,31.5,14.5,0045.69,0033.54
2021-08-11 10:55:00,FlowAlarm;OPCInstrumentWarning,0829.2,4.99,0.00,29.6,28.7,00.0,38.7,31.6,14.6,0045.21,0033.60
2021-08-11 10:56:00,FlowAlarm;OPCInstrumentWarning,0829.2,4.99,0.00,29.6,28.8,00.0,38.7,31.6,14.7,0045.33,0033.72
2021-08-11 10:57:00,FlowAlarm;OPCInstrumentWarning,0829.3,5.01,0.00,29.6,28.8,00.0,38.8,31.6,14.6,0045.38,0033.82
2021-08-11 10:58:00,FlowAlarm;OPCInstrumentWarning,0829.2,5.01,0.00,29.6,28.8,00.0,38.8,31.6,14.2,0045.95,0033.93
2021-08-11 10:59:00,FlowAlarm;OPCInstrumentWarning,0829.1,4.99,0.00,29.7,28.9,00.0,38.8,31.7,14.1,0045.89,0033.92
